Change the Weather History Date:

Tuesday, February 12, 2013

  Actual Average (KLOT) Record (KLOT)
Temperature  
Mean Temperature 27 °F 27 °F  
Max Temperature 31 °F 34 °F 53 °F (2005)
Min Temperature 23 °F 19 °F -8 °F (2014)
Degree Days  
Heating Degree Days 38 38  
Month to date heating degree days 478  
Since 1 July heating degree days 4159  
Cooling Degree Days 0 0  
Month to date cooling degree days 0  
Year to date cooling degree days 0  
Moisture  
Dew Point 23 °F    
Average Humidity 81    
Maximum Humidity 100    
Minimum Humidity 72    
Precipitation  
Precipitation 0.00 in 0.06 in 0.11 in (2008)
Month to date precipitation 0.67  
Year to date precipitation 2.60  
Snow  
Snow 0.00 in 0.20 in 1.80 in (1997)
Month to date snowfall 3.0  
Since 1 July snowfall 24.0  
Snow Depth -    
Sea Level Pressure  
Sea Level Pressure 30.04 in    
Wind  
Wind Speed 12 mph (West)    
Max Wind Speed 23 mph    
Max Gust Speed 26 mph    
Visibility 10 miles    
Events      
T = Trace of Precipitation, MM = Missing Value Source: NWS Daily Summary

Daily Weather History Graph

Daily Weather History Graph

Search for Another Location

Airport or City:

Trip Planner

Search our weather history database for the weather conditions in past years. The results will help you decide how hot, cold, wet, or windy it might be!

Date:

Astronomy

Feb. 12, 2013 Rise Set
Actual Time 6:52 AM CST 5:24 PM CST
Civil Twilight 6:23 AM CST 5:52 PM CST
Nautical Twilight 5:51 AM CST 6:25 PM CST
Astronomical Twilight 5:19 AM CST 6:57 PM CST
Moon 7:46 AM CST (2/12) 8:27 PM CST (2/12)
Length of Visible Light 11h 28m
Length of Day
10h 31m
Waxing Crescent, 7% of the Moon is Illuminated
Feb 12
Waxing Crescent
Feb 17
First Quarter
Feb 25
Full
Mar 4
Last Quarter
Mar 11
New

Hourly Weather History & Observations

Time (CST) Temp. Windchill Dew Point Humidity Pressure Visibility Wind Dir Wind Speed Gust Speed Precip Events Conditions
12:15 AM 30.4 °F 18.7 °F 23.5 °F 76% 30.06 in 10.0 mi WNW 17.3 mph - N/A   Overcast
12:35 AM 30.6 °F 19.4 °F 23.9 °F 76% 30.06 in 10.0 mi West 16.1 mph 21.9 mph N/A   Overcast
12:55 AM 30.2 °F 18.9 °F 23.5 °F 76% 30.06 in 10.0 mi West 16.1 mph - N/A   Overcast
1:15 AM 30.0 °F 17.9 °F 23.4 °F 76% 30.06 in 10.0 mi WNW 18.4 mph - N/A   Overcast
1:35 AM 30.0 °F 17.5 °F 23.2 °F 76% 30.07 in 10.0 mi WNW 19.6 mph 26.5 mph N/A   Overcast
1:55 AM 29.8 °F 16.3 °F 22.8 °F 75% 30.07 in 10.0 mi WNW 23.0 mph 26.5 mph N/A   Overcast
2:15 AM 29.3 °F 17.3 °F 22.8 °F 77% 30.08 in 10.0 mi WNW 17.3 mph 21.9 mph N/A   Overcast
2:35 AM 28.8 °F 16.6 °F 22.5 °F 77% 30.09 in 10.0 mi West 17.3 mph - N/A   Overcast
2:55 AM 28.4 °F 16.6 °F 22.3 °F 78% 30.08 in 10.0 mi West 16.1 mph 23.0 mph N/A   Overcast
3:15 AM 28.2 °F 16.3 °F 21.9 °F 77% 30.08 in 10.0 mi WNW 16.1 mph - N/A   Overcast
3:35 AM 28.4 °F 16.2 °F 22.3 °F 78% 30.08 in 10.0 mi WNW 17.3 mph 20.7 mph N/A   Overcast
3:55 AM 28.4 °F 17.5 °F 22.3 °F 78% 30.07 in 10.0 mi WNW 13.8 mph 20.7 mph N/A   Overcast
4:15 AM 28.4 °F 19.7 °F 22.6 °F 79% 30.09 in 10.0 mi WNW 9.2 mph 18.4 mph N/A   Overcast
4:35 AM 28.4 °F 18.5 °F 22.8 °F 80% 30.08 in 10.0 mi WNW 11.5 mph 19.6 mph N/A   Overcast
4:55 AM 28.4 °F 18.5 °F 22.8 °F 80% 30.09 in 10.0 mi WNW 11.5 mph - N/A   Overcast
5:15 AM 28.2 °F 17.7 °F 22.8 °F 80% 30.08 in 10.0 mi WNW 12.7 mph - N/A   Overcast
5:35 AM 28.4 °F 18.5 °F 22.8 °F 80% 30.09 in 10.0 mi WNW 11.5 mph - N/A   Overcast
5:55 AM 28.2 °F 20.2 °F 22.8 °F 80% 30.09 in 10.0 mi NW 8.1 mph - N/A   Overcast
6:15 AM 28.0 °F 18.6 °F 23.0 °F 81% 30.08 in 10.0 mi West 10.4 mph - N/A   Overcast
6:35 AM 27.5 °F 19.3 °F 22.6 °F 82% 30.08 in 10.0 mi West 8.1 mph - N/A   Overcast
6:55 AM 27.5 °F 19.3 °F 22.6 °F 82% 30.09 in 10.0 mi West 8.1 mph - N/A   Overcast
7:15 AM 27.5 °F 18.6 °F 22.3 °F 81% 30.09 in 10.0 mi West 9.2 mph - N/A   Overcast
7:35 AM 27.5 °F 18.0 °F 22.1 °F 80% 30.10 in 10.0 mi West 10.4 mph - N/A   Overcast
7:55 AM 27.9 °F 17.3 °F 22.5 °F 80% 30.11 in 10.0 mi WNW 12.7 mph - N/A   Overcast
8:15 AM 28.0 °F 17.0 °F 22.6 °F 80% 30.10 in 10.0 mi WNW 13.8 mph - N/A   Overcast
8:35 AM 28.4 °F 18.0 °F 22.8 °F 80% 30.09 in 10.0 mi West 12.7 mph - N/A   Overcast
8:55 AM 28.2 °F 18.9 °F 22.5 °F 79% 30.11 in 10.0 mi West 10.4 mph - N/A   Overcast
9:15 AM 28.6 °F 18.7 °F 23.2 °F 80% 30.11 in 10.0 mi WNW 11.5 mph - N/A   Overcast
9:35 AM 28.8 °F 19.5 °F 23.2 °F 80% 30.11 in 10.0 mi West 10.4 mph - N/A   Overcast
9:55 AM 28.9 °F 19.2 °F 23.5 °F 80% 30.11 in 10.0 mi WNW 11.5 mph - N/A   Overcast
10:15 AM 29.1 °F 19.4 °F 23.5 °F 80% 30.11 in 10.0 mi West 11.5 mph - N/A   Overcast
10:35 AM 30.0 °F 20.0 °F 23.7 °F 77% 30.11 in 10.0 mi West 12.7 mph 18.4 mph N/A   Overcast
10:55 AM 30.0 °F 19.5 °F 23.5 °F 77% 30.10 in 10.0 mi West 13.8 mph - N/A   Overcast
11:15 AM 30.2 °F 18.9 °F 23.4 °F 76% 30.08 in 10.0 mi WNW 16.1 mph - N/A   Overcast
11:35 AM 30.2 °F 19.3 °F 23.4 °F 76% 30.06 in 10.0 mi WNW 15.0 mph 18.4 mph N/A   Overcast
11:55 AM 30.0 °F 20.0 °F 22.8 °F 75% 30.05 in 10.0 mi WNW 12.7 mph 20.7 mph N/A   Overcast
12:15 PM 30.2 °F 20.2 °F 23.2 °F 75% 30.04 in 10.0 mi WNW 12.7 mph 17.3 mph N/A   Overcast
12:35 PM 30.2 °F 19.3 °F 23.2 °F 75% 30.05 in 10.0 mi WNW 15.0 mph - N/A   Overcast
12:55 PM 30.2 °F 19.3 °F 23.4 °F 76% 30.04 in 10.0 mi WNW 15.0 mph 19.6 mph N/A   Overcast
1:15 PM 30.0 °F 20.0 °F 23.4 °F 76% 30.04 in 10.0 mi West 12.7 mph - N/A   Overcast
1:35 PM 30.7 °F 20.9 °F 22.8 °F 72% 30.04 in 10.0 mi West 12.7 mph - N/A   Overcast
1:55 PM 30.6 °F 20.7 °F 22.8 °F 73% 30.04 in 10.0 mi West 12.7 mph - N/A   Overcast
2:15 PM 30.7 °F 21.4 °F 23.0 °F 73% 30.04 in 10.0 mi WNW 11.5 mph - N/A   Overcast
2:35 PM 30.9 °F 21.2 °F 23.4 °F 74% 30.03 in 10.0 mi WNW 12.7 mph 17.3 mph N/A   Overcast
2:55 PM 30.7 °F 22.0 °F 23.2 °F 74% 30.04 in 10.0 mi West 10.4 mph - N/A   Overcast
3:15 PM 31.1 °F 21.4 °F 23.2 °F 72% 30.03 in 10.0 mi West 12.7 mph - N/A   Overcast
3:35 PM 30.9 °F 23.5 °F 23.4 °F 74% 30.02 in 10.0 mi West 8.1 mph - N/A   Overcast
3:55 PM 30.9 °F 24.3 °F 23.4 °F 74% 30.02 in 10.0 mi West 6.9 mph - N/A   Mostly Cloudy
4:15 PM 31.1 °F 25.4 °F 23.5 °F 74% 30.02 in 10.0 mi WSW 5.8 mph - N/A   Scattered Clouds
4:35 PM 31.1 °F 23.1 °F 23.7 °F 74% 30.01 in 10.0 mi West 9.2 mph - N/A   Scattered Clouds
4:55 PM 30.7 °F 23.3 °F 23.9 °F 76% 30.00 in 10.0 mi West 8.1 mph - N/A   Scattered Clouds
5:15 PM 30.0 °F 25.2 °F 23.9 °F 78% 30.00 in 10.0 mi WNW 4.6 mph - N/A   Clear
5:35 PM 29.1 °F 25.4 °F 23.9 °F 81% 29.99 in 10.0 mi WNW 3.5 mph - N/A   Clear
5:55 PM 28.8 °F - 23.9 °F 82% 29.99 in 10.0 mi Calm Calm - N/A   Clear
6:15 PM 29.3 °F - 24.1 °F 81% 29.98 in 10.0 mi Calm Calm - N/A   Clear
6:35 PM 27.5 °F - 23.7 °F 86% 29.98 in 10.0 mi Calm Calm - N/A   Clear
6:55 PM 27.1 °F - 24.4 °F 90% 29.98 in 10.0 mi Calm Calm - N/A   Clear
7:15 PM 28.6 °F - 24.6 °F 85% 29.98 in 10.0 mi Calm Calm - N/A   Clear
7:35 PM 27.9 °F - 24.8 °F 88% 29.97 in 10.0 mi Calm Calm - N/A   Clear
7:55 PM 27.1 °F 23.2 °F 25.9 °F 95% 29.96 in 10.0 mi SE 3.5 mph - N/A   Clear
8:15 PM 25.3 °F 21.1 °F 24.4 °F 96% 29.95 in 10.0 mi SSE 3.5 mph - N/A   Clear
8:35 PM 26.6 °F - 24.8 °F 93% 29.95 in 10.0 mi Calm Calm - N/A   Clear
8:55 PM 26.8 °F - 24.1 °F 90% 29.95 in 10.0 mi Calm Calm - N/A   Clear
9:15 PM 27.0 °F - 23.9 °F 88% 29.95 in 10.0 mi Calm Calm - N/A   Clear
9:35 PM 26.4 °F - 23.5 °F 89% 29.94 in 10.0 mi Calm Calm - N/A   Clear
9:55 PM 26.2 °F - 23.9 °F 91% 29.94 in 10.0 mi Calm Calm - N/A   Clear
10:15 PM 25.7 °F 21.5 °F 24.8 °F 96% 29.95 in 7.0 mi SSW 3.5 mph - N/A   Clear
10:35 PM 23.0 °F - 23.0 °F 100% 29.94 in 5.0 mi Calm Calm - N/A   Clear
10:55 PM 24.6 °F - 24.6 °F 100% 29.93 in 5.0 mi Calm Calm - N/A   Clear
11:15 PM 24.4 °F 20.1 °F 24.4 °F 100% 29.93 in 5.0 mi South 3.5 mph - N/A   Clear
11:35 PM 24.3 °F 19.9 °F 24.3 °F 100% 29.93 in 5.0 mi SSE 3.5 mph - N/A   Clear
11:55 PM 24.4 °F 18.6 °F 24.4 °F 100% 29.92 in 5.0 mi SSE 4.6 mph - N/A   Clear